This is the latest recevied weather packets stored in our database for station/object DH4SBM. If no packets are shown the sender has not sent any weather packets the latest 10 day(s).
| Time | Temp. | Humidity | Pressure | Rain* | Wind** | Luminosity | Snow |
|---|---|---|---|---|---|---|---|
| 1777556136 | 16.67° C | 24% | 1027.7 hPa | 0 mm | - | 686 W/m² | - |
| 1777555536 | 16.67° C | 23% | 1027.6 hPa | 0 mm | - | 701 W/m² | - |
| 1777554936 | 16.67° C | 24% | 1027.8 hPa | 0 mm | - | 721 W/m² | - |
| 1777554336 | 16.11° C | 24% | 1027.8 hPa | 0 mm | - | 738 W/m² | - |
| 1777553736 | 16.11° C | 23% | 1027.8 hPa | 0 mm | - | 752 W/m² | - |
| 1777553136 | 16.11° C | 25% | 1027.8 hPa | 0 mm | - | 772 W/m² | - |
| 1777552791 | 16.11° C | 25% | 1027.9 hPa | 0 mm | - | 777 W/m² | - |
| 1777552191 | 16.11° C | 24% | 1028 hPa | 0 mm | - | 791 W/m² | - |
| 1777551591 | 16.11° C | 24% | 1028.1 hPa | 0 mm | - | 803 W/m² | - |
| 1777550991 | 15.56° C | 25% | 1028.3 hPa | 0 mm | - | 810 W/m² | - |
| 1777550391 | 15° C | 25% | 1028.4 hPa | 0 mm | - | 819 W/m² | - |
| 1777549791 | 15.56° C | 26% | 1028.6 hPa | 0 mm | - | 826 W/m² | - |
| 1777549191 | 15.56° C | 27% | 1028.6 hPa | 0 mm | - | 830 W/m² | - |
| 1777548591 | 14.44° C | 27% | 1028.6 hPa | 0 mm | - | 833 W/m² | - |
| 1777547990 | 15° C | 28% | 1028.8 hPa | 0 mm | - | 833 W/m² | - |
| 1777547390 | 14.44° C | 28% | 1028.9 hPa | 0 mm | - | 837 W/m² | - |
| 1777546791 | 14.44° C | 28% | 1029 hPa | 0 mm | - | 835 W/m² | - |
| 1777546190 | 13.89° C | 29% | 1029 hPa | 0 mm | - | 833 W/m² | - |
| 1777545590 | 13.89° C | 26% | 1029.1 hPa | 0 mm | - | 831 W/m² | - |
| 1777544990 | 13.33° C | 27% | 1029.2 hPa | 0 mm | - | 828 W/m² | - |
| 1777544391 | 13.33° C | 26% | 1029.1 hPa | 0 mm | - | 817 W/m² | - |
| 1777543790 | 13.33° C | 28% | 1029.2 hPa | 0 mm | - | 812 W/m² | - |
| 1777543190 | 13.33° C | 28% | 1029.3 hPa | 0 mm | - | 805 W/m² | - |
| 1777542590 | 12.78° C | 29% | 1029.2 hPa | 0 mm | - | 791 W/m² | - |
| 1777541990 | 12.78° C | 31% | 1029.3 hPa | 0 mm | - | 779 W/m² | - |
* Rain latest hour (hover to see other rain measurements)
** Current wind speed in m/s (hover to see current wind gust speed)